Other Public Products
Issued by NWS Charleston, SC

Current Version | Previous Version | Graphics & Text | Print | Product List | Glossary On
Versions: 1 2 3 4 5 6 7 8 9 10 11 12 13 14 15 16 17 18 19 20 21 22 23 24 25 26 27 28 29 30 31 32 33 34 35 36 37 38 39 40 41 42 43 44 45 46 47 48 49 50
035
FPUS82 KCHS 271212
OPUCHS

TEST...KCHS/KSAV Gateway Observations...TEST
National Weather Service Charleston SC
800 AM EDT MON MAR 27 2017

NOTE: "fair" indicates few or no clouds below 12,000 feet with no
significant weather and/or obstructions to visibility.

SCZ050-WAZ558-NCZ071-TXZ119-213-PAZ071-DCZ001-FLZ074-172-MI076-
NYZ176-178-MAZ016-IL014-TNZ027-NJZ106-GAZ044-MD014-271300-

...Gateway Observations for Charleston International...

CITY           SKY/WX    TMP DP  RH WIND       PRES   REMARKS
Chas Airport   CLEAR     60  57  89 S3        30.14R
6HR MIN TEMP:  57; 6HR MAX TEMP:  62;

Seattle        LGT RAIN  45  43  93 S9        29.92R
6HR MIN TEMP:  44; 6HR MAX TEMP:  46; 6HR PCP:  0.02;

Charlotte      MOCLDY    60  57  89 S6        30.12R
6HR MIN TEMP:  59; 6HR MAX TEMP:  63; 6HR PCP: TRACE;

Dallas DFW     CLOUDY    62  51  67 NW15      29.83R
6HR MIN TEMP:  62; 6HR MAX TEMP:  72;

Dallas Love    CLOUDY    65  51  60 NW12      29.83R
6HR MIN TEMP:  65; 6HR MAX TEMP:  72; 6HR PCP: TRACE;

Philladelphia  LGT RAIN  44  43  96 NE3       30.11S VSB 1
6HR MIN TEMP:  42; 6HR MAX TEMP:  44; 6HR PCP: TRACE;

Wash National  DRZL/FOG  48  48 100 SE3       30.10F VSB 1/4
6HR MIN TEMP:  46; 6HR MAX TEMP:  48; 6HR PCP:  0.01;

Baltimore      DRZL/FOG  45  45 100 E3        30.09S VSB 1/4
6HR MIN TEMP:  44; 6HR MAX TEMP:  45; 6HR PCP:  0.04;

Miami          PTCLDY    69  61  75 CALM      30.05R
6HR MIN TEMP:  67; 6HR MAX TEMP:  71;

Detroit        CLOUDY    52  51  97 SW8       29.90R FOG
6HR MIN TEMP:  47; 6HR MAX TEMP:  52;

Newark         DRZL/FOG  41  40  96 VRB5      30.12F VSB 1/4
6HR MIN TEMP:  39; 6HR MAX TEMP:  41; 6HR PCP:  0.03;

Laguardia      LGT RAIN  40  38  93 NE13      30.12F VSB 1/4 WCI  32
6HR MIN TEMP:  39; 6HR MAX TEMP:  40; 6HR PCP: TRACE;

J F K          DRZL/FOG  43  43 100 E9        30.13F VSB<1/4
6HR MIN TEMP:  40; 6HR MAX TEMP:  43; 6HR PCP:  0.01;

Boston Logan   LGT RAIN  38  38 100 E13       30.22F VSB 1/2 WCI  30
6HR MIN TEMP:  36; 6HR MAX TEMP:  38; 6HR PCP:  0.02;

Ft. Lauderdale PTCLDY    68  62  81 CALM      30.04R
6HR MIN TEMP:  66; 6HR MAX TEMP:  72;

Chicago O`Hare CLOUDY    49  47  93 W3        29.92R FOG
6HR MIN TEMP:  49; 6HR MAX TEMP:  52; 6HR PCP: TRACE;

Chicago Midway DRIZZLE   50  48  93 SW7       29.93R FOG
6HR MIN TEMP:  50; 6HR MAX TEMP:  51; 6HR PCP: TRACE;

Houston Bush   MOCLDY    71  68  90 S6        29.86R
6HR MIN TEMP:  71; 6HR MAX TEMP:  73;

Houston Hobby  MOCLDY    72  70  93 SE6       29.86R
6HR MIN TEMP:  71; 6HR MAX TEMP:  72;

Nashville      MOCLDY    64  58  80 SW7       29.97R
6HR MIN TEMP:  58; 6HR MAX TEMP:  64;

Atlanta        DRZL/FOG  61  60  97 SW8       30.10R VSB 3/4
6HR MIN TEMP:  59; 6HR MAX TEMP:  64; 6HR PCP: TRACE;


$$

GAZ044-118-TXZ119-213-NCZ071-DCZ001-MDZ014-506-PAZ021-071-NJZ106-
NYZ176-178-MAZ106-OHZ011-021-055-MIZ076-KYZ091-ILZ014-INZ047-
MNZ060-ONZ431-271300-

...Gateway Observations for Savannah International...

CITY           SKY/WX    TMP DP  RH WIND       PRES   REMARKS
Savannah Arpt  PTCLDY    61  58  90 SE6       30.13R
6HR MIN TEMP:  58; 6HR MAX TEMP:  64;

Atlanta        DRZL/FOG  61  60  97 SW8       30.10R VSB 3/4
6HR MIN TEMP:  59; 6HR MAX TEMP:  64; 6HR PCP: TRACE;

Charlotte      MOCLDY    60  57  89 S6        30.12R
6HR MIN TEMP:  59; 6HR MAX TEMP:  63; 6HR PCP: TRACE;

Dallas DFW     CLOUDY    62  51  67 NW15      29.83R
6HR MIN TEMP:  62; 6HR MAX TEMP:  72;

Houston Bush   MOCLDY    71  68  90 S6        29.86R
6HR MIN TEMP:  71; 6HR MAX TEMP:  73;

Wash National  DRZL/FOG  48  48 100 SE3       30.10F VSB 1/4
6HR MIN TEMP:  46; 6HR MAX TEMP:  48; 6HR PCP:  0.01;

Wash Dulles    FOG       47  46  97 CALM      30.09R VSB 1/2
6HR MIN TEMP:  45; 6HR MAX TEMP:  47; 6HR PCP: TRACE;

Baltimore      DRZL/FOG  45  45 100 E3        30.09S VSB 1/4
6HR MIN TEMP:  44; 6HR MAX TEMP:  45; 6HR PCP:  0.04;

Philadelphia   LGT RAIN  44  43  96 NE3       30.11S VSB 1
6HR MIN TEMP:  42; 6HR MAX TEMP:  44; 6HR PCP: TRACE;

Newark         DRZL/FOG  41  40  96 VRB5      30.12F VSB 1/4
6HR MIN TEMP:  39; 6HR MAX TEMP:  41; 6HR PCP:  0.03;

Laguardia      LGT RAIN  40  38  93 NE13      30.12F VSB 1/4 WCI  32
6HR MIN TEMP:  39; 6HR MAX TEMP:  40; 6HR PCP: TRACE;

J F K          DRZL/FOG  43  43 100 E9        30.13F VSB<1/4
6HR MIN TEMP:  40; 6HR MAX TEMP:  43; 6HR PCP:  0.01;

Boston         LGT RAIN  38  38 100 E13       30.22F VSB 1/2 WCI  30
6HR MIN TEMP:  36; 6HR MAX TEMP:  38; 6HR PCP:  0.02;

Pittsburg      MOCLDY    55  53  93 SW7       29.97R
6HR MIN TEMP:  53; 6HR MAX TEMP:  56; 6HR PCP:  0.09;

Akron          CLOUDY    53  50  89 SW8       29.96R
6HR MIN TEMP:  53; 6HR MAX TEMP:  55;

Cleveland      CLOUDY    55  49  80 SW8       29.96R
6HR MIN TEMP:  55; 6HR MAX TEMP:  57;

Cincinnati     PTCLDY    44  44 100 CALM      29.99R
6HR MIN TEMP:  42; 6HR MAX TEMP:  51;

Columbus       FOG       47  47 100 S5        29.98S VSB 3/4
Detroit        CLOUDY    52  51  97 SW8       29.90R FOG
6HR MIN TEMP:  47; 6HR MAX TEMP:  52;

Chicago O`Hare CLOUDY    49  47  93 W3        29.92R FOG
6HR MIN TEMP:  49; 6HR MAX TEMP:  52; 6HR PCP: TRACE;

Minneapolis    CLOUDY    38  33  82 N5        29.96S WCI  34
6HR MIN TEMP:  37; 6HR MAX TEMP:  39; 6HR PCP: TRACE;

Indianapolis   MOCLDY    47  46  97 S7        29.96R FOG
6HR MIN TEMP:  46; 6HR MAX TEMP:  52;

Toronto Canada LGT RAIN  43  43 100 VRB2      29.87  VSB 3/4

$$




USA.gov is the U.S. government's official web portal to all federal, state and local government web resources and services.